Orbital Elements at Epoch 2459200.5 (2020-Dec-17.0) TDB
Reference: JPL 19 (heliocentric ecliptic J2000)
Element | Value | Uncertainty (1-sigma) | Units |
e | .06645212930221078 | 4.195e-08 | |
a | 2.838686773540164 | 2.6391e-08 | au |
q | 2.650049993016398 | 1.1892e-07 | au |
i | 13.25462036224395 | 4.7083e-06 | deg |
node | 121.6688491736975 | 2.1294e-05 | deg |
peri | 119.9563561329252 | 4.3365e-05 | deg |
M | 212.6560982613126 | 4.0438e-05 | deg |
tp | 2459915.497138085475 (2022-Dec-01.99713809) | 0.00019999 | TDB |
period | 1746.926521378977 4.78 | 2.4361e-05 6.67e-08 | d yr |
n | .2060762119037644 | 2.8738e-09 | deg/d |
Q | 3.02732355406393 | 2.8144e-08 | au |
|
| | Orbit Determination Parameters
Additional Information
|